Flight Track Log - Related Links

Times and Time Zones

All times are in EDT time to prevent confusion due to time zone crossing. See the N885FT flight status page for this flight to view local times or setup timezone preferences in your user account.

Time Position Orientation Groundspeed Altitude Reporting Facility
EDT Latitude Longitude Course Direction KTS MPH feet Rate Location/Type
Wed 12:39:11 PM 28.6833 -80.8667 338° Northwest 166 191 5,500  Level Orlando TRACON
Wed 12:41:35 PM 28.7878 -80.9144 338° Northwest 167 192 5,500  Level Jacksonville Center
Wed 12:42:30 PM 28.8300 -80.9303 342° North 167 192 5,500  Level Jacksonville Center
Wed 12:43:31 PM 28.8739 -80.9461 342° North 166 191 5,500  Level Jacksonville Center
Wed 12:44:44 PM 28.9286 -80.9686 340° North 166 191 5,500  Level Jacksonville Center
Wed 12:45:33 PM 28.9622 -80.9822 340° North 166 191 5,500  Level Jacksonville Center
Wed 12:46:40 PM 29.0125 -81.0003 343° North 166 191 5,500  Level Jacksonville Center
Wed 12:47:47 PM 29.0631 -81.0231 339° North 167 192 5,500  Level Jacksonville Center
Wed 12:48:41 PM 29.1008 -81.0367 343° North 166 191 5,500  Level Jacksonville Center
Wed 12:49:49 PM 29.1511 -81.0547 343° North 167 192 5,500  Level Jacksonville Center
Wed 12:50:43 PM 29.1889 -81.0706 340° North 168 193 5,500  Level Jacksonville Center
Wed 12:51:38 PM 29.2308 -81.0864 342° North 167 192 5,500  Level Jacksonville Center
Wed 12:52:45 PM 29.2769 -81.1069 339° North 165 190 5,500  Level Jacksonville Center
Wed 12:53:46 PM 29.3233 -81.1278 339° North 167 192 5,500  Level Jacksonville Center
Wed 12:54:47 PM 29.3694 -81.1458 341° North 169 194 5,500  Level Jacksonville Center
Wed 12:55:48 PM 29.4136 -81.1667 338° Northwest 169 194 5,500  Level Jacksonville Center
Wed 12:56:49 PM 29.4575 -81.1850 340° North 170 196 5,500  Level Jacksonville Center
Wed 12:57:56 PM 29.5100 -81.2056 341° North 171 197 5,500  Level Jacksonville Center
Wed 12:58:51 PM 29.5458 -81.2214 339° North 171 197 5,500  Level Jacksonville Center
Wed 12:59:46 PM 29.5878 -81.2400 339° North 170 196 5,500  Level Jacksonville Center
Wed 01:00:53 PM 29.6381 -81.2606 340° North 169 194 5,500  Level Jacksonville Center
Wed 01:01:44 PM 29.6758 -81.2767 340° North 171 197 5,500  Level Jacksonville Center
Wed 01:02:39 PM 29.7178 -81.2928 342° North 171 197 5,500  Level Jacksonville Center
Wed 01:03:40 PM 29.7619 -81.3136 338° Northwest 171 197 5,500  Level Jacksonville Center
Wed 01:04:41 PM 29.8081 -81.3319 341° North 171 197 5,500  Level Jacksonville Center
Wed 01:05:36 PM 29.8481 -81.3481 341° North 171 197 5,500  Level Jacksonville Center
Wed 01:06:31 PM 29.8900 -81.3664 339° North 171 197 5,500  Level Jacksonville Center
Wed 01:07:32 PM 29.9342 -81.3875 338° Northwest 169 194 5,500  Level Jacksonville Center
Wed 01:08:34 PM 29.9822 -81.4058 342° North 173 199 5,500  Level Jacksonville Center
Wed 01:09:34 PM 30.0283 -81.4267 339° North 171 197 5,500  Level Jacksonville Center
Wed 01:10:35 PM 30.0703 -81.4453 339° North 170 196 5,500  Level Jacksonville Center
Wed 01:11:36 PM 30.1125 -81.4661 337° Northwest 170 196 5,500  Level Jacksonville Center
Wed 01:12:37 PM 30.1586 -81.4825 343° North 168 193 5,500  Level Jacksonville Center
Wed 01:13:38 PM 30.2025 -81.5033 338° Northwest 172 198 5,500  Level Jacksonville Center
Wed 01:14:39 PM 30.2508 -81.5219 342° North 171 197 5,500  Level Jacksonville Center
Wed 01:15:40 PM 30.2969 -81.5406 341° North 170 196 5,500  Level Jacksonville Center
Wed 01:16:41 PM 30.3411 -81.5617 338° Northwest 169 194 5,500  Level Jacksonville Center
Wed 01:17:43 PM 30.3850 -81.5803 340° North 169 194 5,500  Level Jacksonville Center
Wed 01:18:44 PM 30.4311 -81.5989 341° North 169 194 5,500  Level Jacksonville Center
Wed 01:19:45 PM 30.4772 -81.6200 338° Northwest 171 197 5,500  Level Jacksonville Center
Wed 01:20:45 PM 30.5233 -81.6411 338° Northwest 167 192 5,500  Level Jacksonville Center
Wed 01:21:47 PM 30.5675 -81.6597 340° North 168 193 5,500  Level Jacksonville Center
Wed 01:22:48 PM 30.6114 -81.6761 342° North 167 192 5,500  Level Jacksonville Center
Wed 01:23:49 PM 30.6533 -81.6972 337° Northwest 168 193 5,500 -59 Level Jacksonville Center
Wed 01:24:30 PM 30.6869 -81.7114 340° North 169 194 5,400  Descending Jacksonville Center
Wed 01:24:56 PM 30.7036 -81.7183 340° North 170 196 5,500 100 Climbing Jacksonville Center
Wed 01:25:30 PM 30.7289 -81.7303 338° Northwest 179 206 5,500  Level Jacksonville Center
Wed 01:26:30 PM 30.7750 -81.7514 339° North 179 206 5,500  Level Jacksonville Center
Wed 01:27:30 PM 30.8169 -81.7703 339° North 167 192 5,500  Level Jacksonville Center
Wed 01:28:31 PM 30.8608 -81.7889 340° North 167 192 5,500  Level Jacksonville Center
Wed 01:29:31 PM 30.9050 -81.8056 342° North 172 198 5,500  Level Jacksonville Center
Wed 01:30:30 PM 30.9489 -81.8267 338° Northwest 172 198 5,500  Level Jacksonville Center
Wed 01:31:30 PM 30.9931 -81.8456 340° North 172 198 5,500  Level Jacksonville Center
Wed 01:32:31 PM 31.0350 -81.8644 339° North 172 198 5,500  Level Jacksonville Center
Wed 01:33:30 PM 31.0789 -81.8858 337° Northwest 172 198 5,500  Level Jacksonville Center
Wed 01:34:30 PM 31.1208 -81.9025 341° North 167 192 5,500  Level Jacksonville Center
Wed 01:35:30 PM 31.1606 -81.9214 338° Northwest 167 192 5,500  Level Jacksonville Center
Wed 01:36:30 PM 31.2025 -81.9356 344° North 162 186 5,500  Level Jacksonville Center
Wed 01:37:30 PM 31.2464 -81.9594 335° Northwest 157 181 5,500  Level Jacksonville Center
Wed 01:38:31 PM 31.2883 -81.9736 344° North 158 182 5,500  Level Jacksonville Center
Wed 01:39:30 PM 31.3303 -81.9928 339° North 158 182 5,500  Level Jacksonville Center
Wed 01:40:30 PM 31.3681 -82.0069 342° North 153 176 5,500  Level Jacksonville Center
Wed 01:41:30 PM 31.4078 -82.0261 338° Northwest 153 176 5,500  Level Jacksonville Center
Wed 01:42:30 PM 31.4539 -82.0500 336° Northwest 153 176 5,500  Level Jacksonville Center
Wed 01:43:30 PM 31.4958 -82.0667 341° North 153 176 5,500  Level Jacksonville Center
Wed 01:44:31 PM 31.5375 -82.0833 341° North 153 176 5,500  Level Jacksonville Center
Wed 01:45:30 PM 31.5775 -82.1000 340° North 153 176 5,500  Level Jacksonville Center
Wed 01:46:30 PM 31.6233 -82.1192 340° North 153 176 5,500  Level Jacksonville Center
Wed 01:47:31 PM 31.6633 -82.1433 333° Northwest 158 182 5,500  Level Jacksonville Center
Wed 01:48:31 PM 31.7050 -82.1600 341° North 152 175 5,500 -151 Level Jacksonville Center
Wed 01:49:30 PM 31.7447 -82.1719 346° North 152 175 5,200 -350 Descending Jacksonville Center
Wed 01:50:31 PM 31.7847 -82.1911 338° Northwest 157 181 4,800 -500 Descending Jacksonville Center
Wed 01:51:30 PM 31.8286 -82.2128 337° Northwest 151 174 4,200 -655 Descending Jacksonville Center
Wed 01:52:30 PM 31.8706 -82.2319 339° North 151 174 3,500 -645 Descending Jacksonville Center
Wed 01:53:31 PM 31.9103 -82.2489 340° North 156 180 2,900 -650 Descending Jacksonville Center
Wed 01:54:30 PM 31.9478 -82.2658 339° North 156 180 2,200 -350 Descending Jacksonville Center
Wed 01:55:31 PM 31.9833 -82.2803 341° North 149 171 2,200  Level Jacksonville Center

Login

Don't have an account? Register now (free) for customized features, flight alerts, and more!